Location: Pel�-Koumbol�
(14.9505°N, 3.0798°W)
Time: 13:26:42
(UTC+00:00)

Aurora 2 Rocket - Pass Details

Date: 17 February 2020
Orbit: 390 x 1745 km, 25.0° (Epoch: 04 April)

Event Time Altitude Azimuth Distance (km) Brightness Sun altitude
Exits shadow 05:09:56 29° 343° (NNW) 1,161 3.7 -21.3°
Maximum altitude 05:09:58 29° 344° (NNW) 1,160 3.7 -21.3°
Drops below altitude 10° 05:13:30 10° 46° (NE) 1,759 5.4 -20.5°
Sets 05:15:39 0° 59° (ENE) 2,511 6.5 -20.0°
